UAL1959 PANC-KDEN

Flight info

Callsign UAL1959
Flight time N/A
Altitude 37000
Route TED JOH BKA J195 ANN 50N122W/N0438F390 GEG DLN TOFUU FLATI5
Aircraft B38M/M-SDE1FGHILORVWXY/HB1

Departure

Time 2026-05-07 20:45
Airport Ted Stevens Anchorage International Airport (PANC)

Arrival

Time N/A
Airport Denver International Airport (KDEN)
Time Latitude Longitude Altitude Speed Heading
2026-05-07 20:39 61.17126 -149.98639 117 ft 4 kts 113°
2026-05-07 20:39 61.17117 -149.98556 117 ft 8 kts 95°
2026-05-07 20:40 61.17117 -149.98410 117 ft 11 kts 89°
2026-05-07 20:40 61.17117 -149.98237 117 ft 13 kts 90°
2026-05-07 20:40 61.17117 -149.98033 117 ft 15 kts 90°
2026-05-07 20:40 61.17117 -149.97790 113 ft 14 kts 90°
2026-05-07 20:41 61.17117 -149.97552 110 ft 19 kts 90°
2026-05-07 20:41 61.17125 -149.97294 105 ft 19 kts 86°
2026-05-07 20:41 61.17127 -149.96995 101 ft 23 kts 89°
2026-05-07 20:41 61.17127 -149.96654 99 ft 24 kts 90°
2026-05-07 20:42 61.17127 -149.96383 99 ft 17 kts 90°
2026-05-07 20:42 61.17128 -149.96121 99 ft 19 kts 90°
2026-05-07 20:42 61.17128 -149.95861 99 ft 19 kts 90°
2026-05-07 20:42 61.17128 -149.95586 99 ft 16 kts 90°
2026-05-07 20:43 61.17129 -149.95338 99 ft 18 kts 90°
2026-05-07 20:43 61.17129 -149.95090 99 ft 14 kts 89°
2026-05-07 20:43 61.17126 -149.94896 99 ft 12 kts 105°
2026-05-07 20:43 61.17059 -149.94821 99 ft 12 kts 195°
2026-05-07 20:44 61.17002 -149.94885 102 ft 7 kts 211°
2026-05-07 20:44 61.16983 -149.94966 103 ft 7 kts 264°
2026-05-07 20:44 61.16982 -149.95283 103 ft 55 kts 270°
2026-05-07 20:44 61.16981 -149.96629 103 ft 130 kts 270°
2026-05-07 20:45 61.16976 -149.98873 292 ft 172 kts 268°
2026-05-07 20:45 61.17024 -150.01486 955 ft 188 kts 269°
2026-05-07 20:45 61.17057 -150.04198 2043 ft 187 kts 268°
2026-05-07 20:45 61.17068 -150.06873 2947 ft 192 kts 266°
2026-05-07 20:46 61.17045 -150.09660 3781 ft 193 kts 265°
2026-05-07 20:46 61.16816 -150.12486 4397 ft 209 kts 244°
2026-05-07 20:46 61.15920 -150.14904 5069 ft 218 kts 213°
2026-05-07 20:46 61.14487 -150.16087 5802 ft 228 kts 188°
2026-05-07 20:47 61.12889 -150.16275 6778 ft 230 kts 179°
2026-05-07 20:47 61.11303 -150.16217 7736 ft 231 kts 179°
2026-05-07 20:47 61.09685 -150.16126 8637 ft 237 kts 178°
2026-05-07 20:47 61.07975 -150.16006 9224 ft 255 kts 178°
2026-05-07 20:48 61.06144 -150.15873 9900 ft 267 kts 178°
2026-05-07 20:48 61.04267 -150.15729 10616 ft 278 kts 178°
2026-05-07 20:48 61.02268 -150.15551 11023 ft 297 kts 178°
2026-05-07 20:48 61.00157 -150.15347 11586 ft 310 kts 178°
2026-05-07 20:49 60.97990 -150.15111 12387 ft 313 kts 178°
2026-05-07 20:49 60.95803 -150.14775 13151 ft 319 kts 172°
2026-05-07 20:49 60.93745 -150.13009 13950 ft 329 kts 147°
2026-05-07 20:49 60.92183 -150.09487 14571 ft 341 kts 124°
2026-05-07 20:50 60.91270 -150.04906 15222 ft 353 kts 106°
2026-05-07 20:50 60.90742 -150.00009 15841 ft 358 kts 107°
2026-05-07 20:50 60.90160 -149.95022 16446 ft 362 kts 107°
2026-05-07 20:50 60.89580 -149.89944 17056 ft 367 kts 107°
2026-05-07 20:51 60.88996 -149.84794 17681 ft 373 kts 107°
2026-05-07 20:51 60.88403 -149.79562 18292 ft 377 kts 107°
2026-05-07 20:51 60.87803 -149.74269 18795 ft 382 kts 107°
2026-05-07 20:51 60.87196 -149.68926 19306 ft 386 kts 107°
2026-05-07 20:52 60.86582 -149.63543 19828 ft 389 kts 107°
2026-05-07 20:52 60.85960 -149.58111 20341 ft 393 kts 107°
2026-05-07 20:52 60.85337 -149.52689 20856 ft 396 kts 107°
2026-05-07 20:52 60.84701 -149.47169 21380 ft 399 kts 107°
2026-05-07 20:53 60.84057 -149.41597 21810 ft 404 kts 107°
2026-05-07 20:53 60.83402 -149.35982 22357 ft 406 kts 107°
2026-05-07 20:53 60.82742 -149.30326 22784 ft 410 kts 108°
2026-05-07 20:53 60.82075 -149.24632 23278 ft 412 kts 108°
2026-05-07 20:54 60.81398 -149.18872 23722 ft 416 kts 108°
2026-05-07 20:54 60.80715 -149.13095 24118 ft 419 kts 108°
2026-05-07 20:54 60.80024 -149.07276 24544 ft 421 kts 108°
2026-05-07 20:54 60.79329 -149.01431 24961 ft 423 kts 108°
2026-05-07 20:55 60.78626 -148.95551 25382 ft 426 kts 108°
2026-05-07 20:55 60.77917 -148.89643 25803 ft 428 kts 108°
2026-05-07 20:55 60.77212 -148.83790 26184 ft 430 kts 108°
2026-05-07 20:55 60.76491 -148.77833 26582 ft 432 kts 108°
2026-05-07 20:56 60.75762 -148.71835 26989 ft 435 kts 108°
2026-05-07 20:56 60.75028 -148.65811 27355 ft 438 kts 109°
2026-05-07 20:56 60.74288 -148.59768 27733 ft 440 kts 109°
2026-05-07 20:56 60.73538 -148.53674 28097 ft 443 kts 109°
2026-05-07 20:57 60.72781 -148.47561 28477 ft 445 kts 109°
2026-05-07 20:57 60.72024 -148.41428 28859 ft 447 kts 109°
2026-05-07 20:57 60.71254 -148.35244 29180 ft 450 kts 109°
2026-05-07 20:57 60.70478 -148.29038 29534 ft 452 kts 109°
2026-05-07 20:58 60.69694 -148.22793 29860 ft 455 kts 109°
2026-05-07 20:58 60.68902 -148.16512 30187 ft 458 kts 110°
2026-05-07 20:58 60.68103 -148.10205 30389 ft 460 kts 110°
2026-05-07 20:58 60.67299 -148.03869 30632 ft 462 kts 110°
2026-05-07 20:59 60.66489 -147.97515 30908 ft 464 kts 110°
2026-05-07 20:59 60.65671 -147.91135 31162 ft 466 kts 110°
2026-05-07 20:59 60.64845 -147.84711 31412 ft 469 kts 110°
2026-05-07 20:59 60.64013 -147.78273 31656 ft 471 kts 110°
2026-05-07 21:00 60.63186 -147.71905 31894 ft 473 kts 110°
2026-05-07 21:00 60.62339 -147.65402 32138 ft 475 kts 110°
2026-05-07 21:00 60.61487 -147.58892 32379 ft 477 kts 110°
2026-05-07 21:00 60.60626 -147.52338 32618 ft 480 kts 110°
2026-05-07 21:01 60.59759 -147.45770 32852 ft 482 kts 110°
2026-05-07 21:01 60.58900 -147.39280 33077 ft 484 kts 110°
2026-05-07 21:01 60.58018 -147.32651 33318 ft 486 kts 110°
2026-05-07 21:01 60.57130 -147.26008 33551 ft 488 kts 110°
2026-05-07 21:02 60.56238 -147.19354 33836 ft 488 kts 110°
2026-05-07 21:02 60.55342 -147.12705 34152 ft 488 kts 110°
2026-05-07 21:02 60.54443 -147.06059 34409 ft 488 kts 110°
2026-05-07 21:02 60.53551 -146.99497 34656 ft 487 kts 110°
2026-05-07 21:03 60.52646 -146.92857 34905 ft 487 kts 110°
2026-05-07 21:03 60.51738 -146.86231 35154 ft 487 kts 110°
2026-05-07 21:03 60.50828 -146.79617 35405 ft 487 kts 110°
2026-05-07 21:03 60.49912 -146.72994 35658 ft 486 kts 110°
2026-05-07 21:04 60.48996 -146.66391 35902 ft 486 kts 110°
2026-05-07 21:04 60.48201 -146.59711 36131 ft 490 kts 100°
2026-05-07 21:04 60.47773 -146.52878 36385 ft 487 kts 106°
2026-05-07 21:04 60.46696 -146.46476 36611 ft 475 kts 123°
2026-05-07 21:05 60.44859 -146.41034 36790 ft 464 kts 139°
2026-05-07 21:05 60.42633 -146.36330 36929 ft 466 kts 134°
2026-05-07 21:05 60.40843 -146.30822 37191 ft 471 kts 124°
2026-05-07 21:06 60.37630 -146.19167 37203 ft 475 kts 123°
2026-05-07 21:06 60.34506 -146.07374 37193 ft 475 kts 122°
2026-05-07 21:07 60.31425 -145.95650 37188 ft 476 kts 122°
2026-05-07 21:07 60.28318 -145.83873 37187 ft 476 kts 123°
2026-05-07 21:08 60.25198 -145.72105 37191 ft 476 kts 123°
2026-05-07 21:08 60.22069 -145.60367 37192 ft 476 kts 123°
2026-05-07 21:09 60.18926 -145.48640 37184 ft 476 kts 123°
2026-05-07 21:09 60.15774 -145.36936 37192 ft 476 kts 123°
2026-05-07 21:10 60.12611 -145.25252 37187 ft 476 kts 123°
2026-05-07 21:10 60.09459 -145.13670 37189 ft 477 kts 124°
2026-05-07 21:11 60.06274 -145.02029 37192 ft 477 kts 124°
2026-05-07 21:11 60.01477 -144.84604 37195 ft 477 kts 124°
2026-05-07 21:12 59.98259 -144.72988 37191 ft 477 kts 124°
2026-05-07 21:12 59.95031 -144.61396 37196 ft 477 kts 124°
2026-05-07 21:13 59.91812 -144.49898 37199 ft 478 kts 124°
2026-05-07 21:13 59.88560 -144.38337 37200 ft 478 kts 124°
2026-05-07 21:14 59.85294 -144.26790 37198 ft 478 kts 125°
2026-05-07 21:14 59.82022 -144.15275 37204 ft 478 kts 125°
2026-05-07 21:15 59.78737 -144.03774 37201 ft 479 kts 125°
2026-05-07 21:15 59.75438 -143.92279 37205 ft 479 kts 125°
2026-05-07 21:16 59.72151 -143.80887 37205 ft 479 kts 126°
2026-05-07 21:16 59.68831 -143.69436 37215 ft 479 kts 126°
2026-05-07 21:17 59.65497 -143.57991 37213 ft 480 kts 126°
2026-05-07 21:17 59.62180 -143.46664 37209 ft 480 kts 126°
2026-05-07 21:18 59.58826 -143.35267 37209 ft 480 kts 126°
2026-05-07 21:18 59.56027 -143.25797 37208 ft 480 kts 127°
2026-05-07 21:19 59.52647 -143.14415 37209 ft 481 kts 127°
2026-05-07 21:19 59.48705 -143.01211 37210 ft 481 kts 127°
2026-05-07 21:20 59.45850 -142.91697 37210 ft 481 kts 127°
2026-05-07 21:20 59.42462 -142.80451 37209 ft 481 kts 127°
2026-05-07 21:21 59.39040 -142.69152 37216 ft 482 kts 127°
2026-05-07 21:21 59.35600 -142.57847 37209 ft 482 kts 128°
2026-05-07 21:22 59.32151 -142.46568 37210 ft 482 kts 128°
2026-05-07 21:22 59.28716 -142.35387 37214 ft 482 kts 128°
2026-05-07 21:23 59.25248 -142.24154 37217 ft 482 kts 128°
2026-05-07 21:23 59.21770 -142.12943 37215 ft 482 kts 128°
2026-05-07 21:24 59.18279 -142.01746 37215 ft 482 kts 128°
2026-05-07 21:24 59.14778 -141.90570 37216 ft 482 kts 128°
2026-05-07 21:25 59.11272 -141.79429 37223 ft 483 kts 129°
2026-05-07 21:25 59.07772 -141.68361 37219 ft 483 kts 129°
2026-05-07 21:26 59.04239 -141.57241 37216 ft 483 kts 129°
2026-05-07 21:26 59.00698 -141.46149 37219 ft 483 kts 129°
2026-05-07 21:27 58.97147 -141.35078 37220 ft 483 kts 129°
2026-05-07 21:27 58.93608 -141.24095 37221 ft 483 kts 129°
2026-05-07 21:28 58.90034 -141.13060 37229 ft 483 kts 129°
2026-05-07 21:28 58.86450 -141.02040 37229 ft 483 kts 129°
2026-05-07 21:29 58.82865 -140.91071 37222 ft 483 kts 129°
2026-05-07 21:29 58.79263 -140.80101 37227 ft 483 kts 130°
2026-05-07 21:30 58.75677 -140.69232 37222 ft 483 kts 130°
2026-05-07 21:30 58.72064 -140.58330 37225 ft 483 kts 130°
2026-05-07 21:31 58.68414 -140.47369 37230 ft 483 kts 130°
2026-05-07 21:31 58.64806 -140.36580 37228 ft 483 kts 130°
2026-05-07 21:32 58.61159 -140.25724 37229 ft 483 kts 130°
2026-05-07 21:32 58.57508 -140.14912 37232 ft 483 kts 130°
2026-05-07 21:33 58.53849 -140.04121 37225 ft 483 kts 130°
2026-05-07 21:33 58.50182 -139.93356 37231 ft 483 kts 130°
2026-05-07 21:34 58.46502 -139.82604 37231 ft 483 kts 130°
2026-05-07 21:34 58.42813 -139.71873 37234 ft 483 kts 130°
2026-05-07 21:35 58.39140 -139.61237 37230 ft 483 kts 131°
2026-05-07 21:35 58.35435 -139.50553 37236 ft 483 kts 131°
2026-05-07 21:36 58.31718 -139.39886 37235 ft 483 kts 131°
2026-05-07 21:36 58.27995 -139.29250 37234 ft 483 kts 131°
2026-05-07 21:37 58.24263 -139.18636 37235 ft 483 kts 131°
2026-05-07 21:37 58.20525 -139.08050 37235 ft 483 kts 131°
2026-05-07 21:38 58.16773 -138.97473 37239 ft 483 kts 131°
2026-05-07 21:38 58.13014 -138.86923 37237 ft 483 kts 131°
2026-05-07 21:39 58.09247 -138.76396 37235 ft 483 kts 131°
2026-05-07 21:39 58.05471 -138.65890 37238 ft 483 kts 131°
2026-05-07 21:40 58.01712 -138.55478 37241 ft 483 kts 132°
2026-05-07 21:40 57.97919 -138.45019 37241 ft 483 kts 132°
2026-05-07 21:41 57.94117 -138.34579 37244 ft 483 kts 132°
2026-05-07 21:41 57.90312 -138.24178 37245 ft 483 kts 132°
2026-05-07 21:42 57.86492 -138.13780 37247 ft 483 kts 132°
2026-05-07 21:42 57.82667 -138.03413 37242 ft 483 kts 132°
2026-05-07 21:43 57.78859 -137.93137 37245 ft 482 kts 133°
2026-05-07 21:43 57.75016 -137.82814 37244 ft 482 kts 133°
2026-05-07 21:44 57.71172 -137.72529 37244 ft 482 kts 133°
2026-05-07 21:44 57.67316 -137.62257 37242 ft 482 kts 133°
2026-05-07 21:45 57.63483 -137.52089 37242 ft 481 kts 133°
2026-05-07 21:45 57.59618 -137.41881 37248 ft 481 kts 133°
2026-05-07 21:46 57.55746 -137.31696 37237 ft 481 kts 133°
2026-05-07 21:46 57.51867 -137.21538 37246 ft 481 kts 133°
2026-05-07 21:47 57.48007 -137.11470 37240 ft 480 kts 133°
2026-05-07 21:47 57.44113 -137.01357 37246 ft 480 kts 133°
2026-05-07 21:48 57.40225 -136.91302 37240 ft 480 kts 133°
2026-05-07 21:48 57.36326 -136.81260 37245 ft 480 kts 134°
2026-05-07 21:49 57.32418 -136.71237 37245 ft 479 kts 134°
2026-05-07 21:49 57.28506 -136.61246 37246 ft 479 kts 134°
2026-05-07 21:50 57.24611 -136.51337 37247 ft 479 kts 134°
2026-05-07 21:50 57.20689 -136.41392 37244 ft 479 kts 134°
2026-05-07 21:51 57.16763 -136.31475 37249 ft 479 kts 134°
2026-05-07 21:51 57.12829 -136.21574 37247 ft 478 kts 134°
2026-05-07 21:52 57.08888 -136.11699 37240 ft 478 kts 134°
2026-05-07 21:52 57.04944 -136.01854 37249 ft 478 kts 134°
2026-05-07 21:53 57.01015 -135.92085 37249 ft 478 kts 134°
2026-05-07 21:53 56.97049 -135.82260 37244 ft 477 kts 134°
2026-05-07 21:54 56.93115 -135.72554 37251 ft 477 kts 134°
2026-05-07 21:54 56.89153 -135.62816 37249 ft 476 kts 134°
2026-05-07 21:55 56.85156 -135.53178 37251 ft 475 kts 135°
2026-05-07 21:55 56.81120 -135.43609 37247 ft 474 kts 135°
2026-05-07 21:56 56.77109 -135.34049 37247 ft 474 kts 135°
2026-05-07 21:56 56.73122 -135.24572 37246 ft 474 kts 135°
2026-05-07 21:57 56.69098 -135.15047 37238 ft 474 kts 135°
2026-05-07 21:57 56.65069 -135.05549 37244 ft 474 kts 135°
2026-05-07 21:58 56.61041 -134.96089 37243 ft 473 kts 135°
2026-05-07 21:58 56.57002 -134.86640 37237 ft 473 kts 135°
2026-05-07 21:59 56.52963 -134.77237 37244 ft 473 kts 135°
2026-05-07 21:59 56.48915 -134.67844 37238 ft 473 kts 135°
2026-05-07 22:00 56.44855 -134.58464 37257 ft 474 kts 135°
2026-05-07 22:00 56.40814 -134.49163 37246 ft 472 kts 135°
2026-05-07 22:01 56.36742 -134.39826 37243 ft 472 kts 135°
2026-05-07 22:01 56.32666 -134.30518 37240 ft 472 kts 135°
2026-05-07 22:02 56.28590 -134.21241 37236 ft 472 kts 135°
2026-05-07 22:02 56.24518 -134.12013 37231 ft 473 kts 135°
2026-05-07 22:03 56.20430 -134.02780 37232 ft 472 kts 135°
2026-05-07 22:03 56.16327 -133.93551 37230 ft 473 kts 135°
2026-05-07 22:04 56.12212 -133.84331 37219 ft 473 kts 136°
2026-05-07 22:04 56.08788 -133.76685 37225 ft 473 kts 136°
2026-05-07 22:05 56.04661 -133.67501 37228 ft 473 kts 136°
2026-05-07 22:05 56.00527 -133.58336 37222 ft 473 kts 136°
2026-05-07 22:06 55.96388 -133.49194 37221 ft 473 kts 136°
2026-05-07 22:06 55.92259 -133.40110 37221 ft 474 kts 136°
2026-05-07 22:07 55.88099 -133.30992 37217 ft 474 kts 136°
2026-05-07 22:07 55.83933 -133.21892 37213 ft 474 kts 136°
2026-05-07 22:08 55.79752 -133.12797 37207 ft 475 kts 136°
2026-05-07 22:08 55.75570 -133.03729 37211 ft 475 kts 136°
2026-05-07 22:09 55.71375 -132.94661 37205 ft 475 kts 136°
2026-05-07 22:09 55.67169 -132.85625 37209 ft 475 kts 136°
2026-05-07 22:10 55.62955 -132.76599 37201 ft 475 kts 136°
2026-05-07 22:10 55.58756 -132.67637 37204 ft 476 kts 136°
2026-05-07 22:11 55.54526 -132.58640 37209 ft 476 kts 136°
2026-05-07 22:11 55.50283 -132.49652 37221 ft 476 kts 136°
2026-05-07 22:12 55.46056 -132.40726 37207 ft 477 kts 136°
2026-05-07 22:12 55.41794 -132.31762 37209 ft 477 kts 136°
2026-05-07 22:13 55.37523 -132.22813 37201 ft 477 kts 137°
2026-05-07 22:13 55.33243 -132.13876 37206 ft 478 kts 137°
2026-05-07 22:14 55.28956 -132.04957 37195 ft 478 kts 137°
2026-05-07 22:14 55.24655 -131.96044 37199 ft 479 kts 137°
2026-05-07 22:15 55.20342 -131.87139 37200 ft 479 kts 137°
2026-05-07 22:15 55.16018 -131.78242 37199 ft 479 kts 137°
2026-05-07 22:16 55.11689 -131.69368 37193 ft 480 kts 137°
2026-05-07 22:16 55.07374 -131.60547 37191 ft 480 kts 137°
2026-05-07 22:17 55.03298 -131.51235 37192 ft 484 kts 133°
2026-05-07 22:17 54.99240 -131.41861 37185 ft 484 kts 133°
2026-05-07 22:18 54.93124 -131.27869 37178 ft 485 kts 133°
2026-05-07 22:19 54.89059 -131.18613 37180 ft 485 kts 133°
2026-05-07 22:19 54.84952 -131.09300 37178 ft 485 kts 133°
2026-05-07 22:20 54.80839 -131.00004 37178 ft 486 kts 133°
2026-05-07 22:20 54.76712 -130.90713 37149 ft 485 kts 134°
2026-05-07 22:21 54.72634 -130.81568 37187 ft 476 kts 134°
2026-05-07 22:21 54.68579 -130.72505 37190 ft 477 kts 134°
2026-05-07 22:22 54.64514 -130.63455 37189 ft 477 kts 134°
2026-05-07 22:22 54.60441 -130.54417 37181 ft 477 kts 134°
2026-05-07 22:23 54.56390 -130.45464 37180 ft 477 kts 134°
2026-05-07 22:23 54.52304 -130.36464 37182 ft 477 kts 134°
2026-05-07 22:24 54.48206 -130.27475 37179 ft 477 kts 134°
2026-05-07 22:24 54.44102 -130.18500 37178 ft 477 kts 134°
2026-05-07 22:25 54.39983 -130.09529 37203 ft 479 kts 134°
2026-05-07 22:25 54.35855 -130.00567 37172 ft 477 kts 134°
2026-05-07 22:26 54.31718 -129.91621 37176 ft 478 kts 134°
2026-05-07 22:26 54.27612 -129.82772 37102 ft 477 kts 134°
2026-05-07 22:27 54.23477 -129.73894 37230 ft 479 kts 134°
2026-05-07 22:27 54.19322 -129.65003 37162 ft 478 kts 134°
2026-05-07 22:28 54.15157 -129.56123 37124 ft 478 kts 134°
2026-05-07 22:28 54.10993 -129.47278 37177 ft 479 kts 134°
2026-05-07 22:29 54.06816 -129.38437 37146 ft 478 kts 134°
2026-05-07 22:29 54.02665 -129.29681 37173 ft 479 kts 134°
2026-05-07 22:30 53.98469 -129.20860 37167 ft 478 kts 134°
2026-05-07 22:30 53.94267 -129.12061 37158 ft 480 kts 134°
2026-05-07 22:31 53.90062 -129.03286 37155 ft 479 kts 134°
2026-05-07 22:31 53.85847 -128.94518 37157 ft 479 kts 134°
2026-05-07 22:32 53.81654 -128.85832 37175 ft 479 kts 135°
2026-05-07 22:32 53.77427 -128.77102 37166 ft 479 kts 134°
2026-05-07 22:33 53.73192 -128.68386 37151 ft 479 kts 135°
2026-05-07 22:33 53.68952 -128.59691 37172 ft 480 kts 135°
2026-05-07 22:34 53.64695 -128.50993 37122 ft 479 kts 135°
2026-05-07 22:34 53.60471 -128.42390 37152 ft 479 kts 135°
2026-05-07 22:35 53.56216 -128.33756 37152 ft 479 kts 135°
2026-05-07 22:35 53.51945 -128.25118 37157 ft 480 kts 135°
2026-05-07 22:36 53.47664 -128.16493 37135 ft 480 kts 135°
2026-05-07 22:36 53.43375 -128.07877 37148 ft 481 kts 135°
2026-05-07 22:37 53.39099 -127.99322 37142 ft 480 kts 135°
2026-05-07 22:37 53.34796 -127.90738 37137 ft 481 kts 135°
2026-05-07 22:38 53.30483 -127.82165 37124 ft 481 kts 135°
2026-05-07 22:38 53.26160 -127.73603 37140 ft 482 kts 135°
2026-05-07 22:39 53.21836 -127.65067 37109 ft 480 kts 135°
2026-05-07 22:39 53.17507 -127.56553 37130 ft 482 kts 135°
2026-05-07 22:40 53.13165 -127.48041 37133 ft 482 kts 135°
2026-05-07 22:40 53.08854 -127.39614 37117 ft 481 kts 135°
2026-05-07 22:41 53.04499 -127.31135 37122 ft 482 kts 135°
2026-05-07 22:41 53.00132 -127.22660 37131 ft 481 kts 135°
2026-05-07 22:42 52.95772 -127.14229 37127 ft 481 kts 135°
2026-05-07 22:42 52.91399 -127.05800 37120 ft 483 kts 135°
2026-05-07 22:43 52.87052 -126.97450 37115 ft 483 kts 135°
2026-05-07 22:43 52.84877 -126.93282 37253 ft 484 kts 135°
2026-05-07 22:43 52.82669 -126.89058 37554 ft 483 kts 135°
2026-05-07 22:43 52.80470 -126.84859 37792 ft 484 kts 135°
2026-05-07 22:44 52.78266 -126.80657 38021 ft 483 kts 136°
2026-05-07 22:44 52.76066 -126.76470 38264 ft 482 kts 136°
2026-05-07 22:44 52.73871 -126.72299 38490 ft 482 kts 136°
2026-05-07 22:44 52.71669 -126.68124 38693 ft 481 kts 136°
2026-05-07 22:45 52.69470 -126.63957 38891 ft 481 kts 136°
2026-05-07 22:45 52.67272 -126.59801 39037 ft 481 kts 136°
2026-05-07 22:45 52.65072 -126.55649 39089 ft 480 kts 136°
2026-05-07 22:46 52.60676 -126.47373 39081 ft 479 kts 136°
2026-05-07 22:46 52.56303 -126.39167 39096 ft 481 kts 136°
2026-05-07 22:47 52.51887 -126.30907 39053 ft 480 kts 136°
2026-05-07 22:47 52.47475 -126.22682 39083 ft 481 kts 136°
2026-05-07 22:48 52.43039 -126.14440 39074 ft 481 kts 136°
2026-05-07 22:48 52.38633 -126.06280 39073 ft 481 kts 136°
2026-05-07 22:49 52.34186 -125.98073 39059 ft 481 kts 136°
2026-05-07 22:49 52.29739 -125.89891 39046 ft 481 kts 136°
2026-05-07 22:50 52.25279 -125.81712 39054 ft 482 kts 136°
2026-05-07 22:50 52.20843 -125.73604 39037 ft 481 kts 136°
2026-05-07 22:51 52.16367 -125.65450 39053 ft 482 kts 136°
2026-05-07 22:51 52.11887 -125.57314 39040 ft 481 kts 136°
2026-05-07 22:52 52.07407 -125.49207 39042 ft 482 kts 136°
2026-05-07 22:52 52.03671 -125.42462 39031 ft 482 kts 136°
2026-05-07 22:53 51.99182 -125.34385 39041 ft 481 kts 137°
2026-05-07 22:53 51.96788 -125.30090 39015 ft 481 kts 137°
2026-05-07 22:54 51.92280 -125.22019 39030 ft 482 kts 137°
2026-05-07 22:54 51.87776 -125.13980 39029 ft 482 kts 137°
2026-05-07 22:55 51.83266 -125.05958 39025 ft 481 kts 137°
2026-05-07 22:55 51.78758 -124.97962 39026 ft 482 kts 137°
2026-05-07 22:56 51.74227 -124.89953 39032 ft 482 kts 137°
2026-05-07 22:56 51.69699 -124.81978 39026 ft 482 kts 137°
2026-05-07 22:57 51.65158 -124.74002 39028 ft 483 kts 137°
2026-05-07 22:57 51.60642 -124.66096 39007 ft 483 kts 137°
2026-05-07 22:58 51.56087 -124.58148 39029 ft 483 kts 137°
2026-05-07 22:58 51.51532 -124.50225 39018 ft 482 kts 137°
2026-05-07 22:59 51.46974 -124.42319 38993 ft 481 kts 137°
2026-05-07 22:59 51.42404 -124.34421 39040 ft 484 kts 137°
2026-05-07 23:00 51.37826 -124.26532 39012 ft 482 kts 137°
2026-05-07 23:00 51.33250 -124.18672 39043 ft 483 kts 137°
2026-05-07 23:01 51.28654 -124.10803 39042 ft 484 kts 137°
2026-05-07 23:01 51.24058 -124.02957 39038 ft 483 kts 137°
2026-05-07 23:02 51.19454 -123.95123 39052 ft 484 kts 137°
2026-05-07 23:02 51.14879 -123.87363 39048 ft 483 kts 138°
2026-05-07 23:03 51.10264 -123.79560 39066 ft 484 kts 137°
2026-05-07 23:03 51.05627 -123.71742 39077 ft 486 kts 137°
2026-05-07 23:04 51.00993 -123.63954 39084 ft 484 kts 138°
2026-05-07 23:04 50.96407 -123.56272 39085 ft 484 kts 137°
2026-05-07 23:05 50.91790 -123.48561 39098 ft 485 kts 137°
2026-05-07 23:05 50.87132 -123.40806 39081 ft 485 kts 137°
2026-05-07 23:06 50.82471 -123.33070 39071 ft 486 kts 137°
2026-05-07 23:06 50.77800 -123.25340 39055 ft 485 kts 137°
2026-05-07 23:07 50.73130 -123.17638 39060 ft 486 kts 137°
2026-05-07 23:07 50.68470 -123.09974 39069 ft 486 kts 138°
2026-05-07 23:08 50.63774 -123.02272 39028 ft 487 kts 137°
2026-05-07 23:08 50.59066 -122.94578 39042 ft 487 kts 138°
2026-05-07 23:09 50.54358 -122.86908 39059 ft 486 kts 138°
2026-05-07 23:09 50.49639 -122.79239 39047 ft 488 kts 137°
2026-05-07 23:10 50.44951 -122.71639 39055 ft 487 kts 137°
2026-05-07 23:10 50.40212 -122.63982 39079 ft 489 kts 138°
2026-05-07 23:11 50.35473 -122.56346 39005 ft 487 kts 137°
2026-05-07 23:11 50.30738 -122.48740 39092 ft 489 kts 138°
2026-05-07 23:12 50.26011 -122.41170 39024 ft 488 kts 138°
2026-05-07 23:12 50.21254 -122.33573 39023 ft 489 kts 138°
2026-05-07 23:13 50.16476 -122.25964 39051 ft 490 kts 138°
2026-05-07 23:13 50.11699 -122.18381 39026 ft 489 kts 138°
2026-05-07 23:14 50.06914 -122.10807 39028 ft 490 kts 139°
2026-05-07 23:14 50.02148 -122.03285 39065 ft 492 kts 138°
2026-05-07 23:15 49.97621 -121.95282 39046 ft 493 kts 132°
2026-05-07 23:15 49.93312 -121.86966 39032 ft 494 kts 131°
2026-05-07 23:16 49.89003 -121.78607 39034 ft 495 kts 131°
2026-05-07 23:16 49.84718 -121.70320 39027 ft 495 kts 131°
2026-05-07 23:17 49.80400 -121.61995 39008 ft 496 kts 131°
2026-05-07 23:17 49.76067 -121.53669 39034 ft 497 kts 131°
2026-05-07 23:18 49.71733 -121.45362 39037 ft 497 kts 131°
2026-05-07 23:18 49.67376 -121.37043 39063 ft 498 kts 131°
2026-05-07 23:19 49.63016 -121.28737 39033 ft 497 kts 131°
2026-05-07 23:19 49.58668 -121.20487 39016 ft 498 kts 131°
2026-05-07 23:20 49.54292 -121.12208 39031 ft 499 kts 131°
2026-05-07 23:20 49.49902 -121.03929 39050 ft 500 kts 131°
2026-05-07 23:21 49.45509 -120.95667 39006 ft 499 kts 131°
2026-05-07 23:21 49.41103 -120.87412 39008 ft 499 kts 131°
2026-05-07 23:22 49.36679 -120.79144 38994 ft 500 kts 131°
2026-05-07 23:22 49.32257 -120.70908 38989 ft 500 kts 131°
2026-05-07 23:23 49.27849 -120.62725 39001 ft 500 kts 131°
2026-05-07 23:23 49.23406 -120.54500 38998 ft 502 kts 131°
2026-05-07 23:24 49.18951 -120.46279 38989 ft 501 kts 131°
2026-05-07 23:24 49.14485 -120.38065 38980 ft 502 kts 131°
2026-05-07 23:25 49.10012 -120.29861 39007 ft 503 kts 131°
2026-05-07 23:25 49.05531 -120.21670 38976 ft 502 kts 131°
2026-05-07 23:26 49.01041 -120.13484 38963 ft 504 kts 131°
2026-05-07 23:26 48.96543 -120.05313 38978 ft 503 kts 131°
2026-05-07 23:27 48.89814 -119.93135 38962 ft 503 kts 131°
2026-05-07 23:27 48.85300 -119.84994 38950 ft 504 kts 131°
2026-05-07 23:28 48.80794 -119.76898 38954 ft 504 kts 131°
2026-05-07 23:28 48.76264 -119.68779 38927 ft 503 kts 131°
2026-05-07 23:29 48.71718 -119.60658 38967 ft 506 kts 131°
2026-05-07 23:29 48.67156 -119.52533 38937 ft 505 kts 131°
2026-05-07 23:30 48.62594 -119.44432 38944 ft 506 kts 131°
2026-05-07 23:30 48.58012 -119.36321 38942 ft 507 kts 131°
2026-05-07 23:31 48.53420 -119.28218 38940 ft 507 kts 131°
2026-05-07 23:31 48.48852 -119.20182 38948 ft 508 kts 131°
2026-05-07 23:32 48.44255 -119.12116 38939 ft 508 kts 131°
2026-05-07 23:32 48.39636 -119.04039 38947 ft 508 kts 131°
2026-05-07 23:33 48.35016 -118.95985 38941 ft 508 kts 131°
2026-05-07 23:33 48.30391 -118.87945 38959 ft 509 kts 131°
2026-05-07 23:34 48.25760 -118.79920 38938 ft 508 kts 131°
2026-05-07 23:34 48.21150 -118.71955 38947 ft 509 kts 131°
2026-05-07 23:35 48.16494 -118.63936 38943 ft 509 kts 131°
2026-05-07 23:35 48.11838 -118.55938 38948 ft 510 kts 131°
2026-05-07 23:36 48.07167 -118.47940 38956 ft 510 kts 131°
2026-05-07 23:36 48.02495 -118.39967 38954 ft 510 kts 131°
2026-05-07 23:37 47.97805 -118.31984 38965 ft 512 kts 131°
2026-05-07 23:37 47.93103 -118.24003 38946 ft 511 kts 131°
2026-05-07 23:38 47.88400 -118.16049 38963 ft 511 kts 131°
2026-05-07 23:38 47.84488 -118.09448 38985 ft 512 kts 131°
2026-05-07 23:39 47.79767 -118.01503 38984 ft 512 kts 131°
2026-05-07 23:39 47.74263 -117.92265 39005 ft 512 kts 131°
2026-05-07 23:40 47.70324 -117.85673 39015 ft 512 kts 132°
2026-05-07 23:40 47.65582 -117.77757 39024 ft 513 kts 132°
2026-05-07 23:41 47.60831 -117.69850 39029 ft 513 kts 132°
2026-05-07 23:41 47.56167 -117.61855 39016 ft 512 kts 122°
2026-05-07 23:42 47.52430 -117.52891 39014 ft 513 kts 120°
2026-05-07 23:42 47.48674 -117.43924 39029 ft 513 kts 120°
2026-05-07 23:43 47.44914 -117.34953 39019 ft 513 kts 120°
2026-05-07 23:43 47.41149 -117.25994 39014 ft 513 kts 120°
2026-05-07 23:44 47.37375 -117.17045 39028 ft 513 kts 120°
2026-05-07 23:44 47.33587 -117.08094 39033 ft 514 kts 120°
2026-05-07 23:45 47.29827 -116.99235 39037 ft 514 kts 120°
2026-05-07 23:45 47.26026 -116.90310 39039 ft 514 kts 120°
2026-05-07 23:46 47.22221 -116.81405 39033 ft 514 kts 120°
2026-05-07 23:46 47.18404 -116.72500 39025 ft 514 kts 120°
2026-05-07 23:47 47.14578 -116.63603 39015 ft 515 kts 120°
2026-05-07 23:47 47.10769 -116.54774 39009 ft 515 kts 120°
2026-05-07 23:48 47.06932 -116.45908 38987 ft 514 kts 120°
2026-05-07 23:48 47.03087 -116.37054 38984 ft 515 kts 120°
2026-05-07 23:49 46.99224 -116.28187 38978 ft 515 kts 120°
2026-05-07 23:49 46.95361 -116.19348 38965 ft 515 kts 120°
2026-05-07 23:50 46.91488 -116.10513 38951 ft 516 kts 120°
2026-05-07 23:50 46.87607 -116.01687 38948 ft 516 kts 120°
2026-05-07 23:51 46.83719 -115.92877 38940 ft 515 kts 120°
2026-05-07 23:51 46.79832 -115.84097 38941 ft 515 kts 120°
2026-05-07 23:52 46.75935 -115.75321 38918 ft 515 kts 120°
2026-05-07 23:52 46.72053 -115.66604 38924 ft 516 kts 120°
2026-05-07 23:53 46.68139 -115.57845 38934 ft 516 kts 120°
2026-05-07 23:53 46.64211 -115.49082 38947 ft 517 kts 121°
2026-05-07 23:54 46.60274 -115.40328 38928 ft 515 kts 120°
2026-05-07 23:54 46.56337 -115.31600 38929 ft 516 kts 120°
2026-05-07 23:55 46.52415 -115.22933 38936 ft 516 kts 121°
2026-05-07 23:55 46.48461 -115.14222 38938 ft 516 kts 121°
2026-05-07 23:56 46.44500 -115.05523 38915 ft 517 kts 121°
2026-05-07 23:56 46.40520 -114.96808 38932 ft 517 kts 121°
2026-05-07 23:57 46.36542 -114.88128 38938 ft 517 kts 121°
2026-05-07 23:57 46.32573 -114.79494 38940 ft 518 kts 121°
2026-05-07 23:58 46.28575 -114.70820 38936 ft 518 kts 121°
2026-05-07 23:58 46.24568 -114.62158 38943 ft 518 kts 121°
2026-05-07 23:59 46.20547 -114.53489 38934 ft 519 kts 121°
2026-05-07 23:59 46.16516 -114.44827 38952 ft 519 kts 121°
2026-05-08 00:00 46.12511 -114.36247 38925 ft 517 kts 121°
2026-05-08 00:00 46.08474 -114.27624 38925 ft 518 kts 121°
2026-05-08 00:01 46.04442 -114.19038 38926 ft 518 kts 121°
2026-05-08 00:01 46.00389 -114.10434 38926 ft 519 kts 121°
2026-05-08 00:02 45.96321 -114.01825 38932 ft 521 kts 121°
2026-05-08 00:02 45.92263 -113.93263 38918 ft 521 kts 121°
2026-05-08 00:03 45.88174 -113.84665 38908 ft 520 kts 121°
2026-05-08 00:03 45.84083 -113.76085 38948 ft 521 kts 121°
2026-05-08 00:04 45.79986 -113.67519 38917 ft 520 kts 121°
2026-05-08 00:04 45.75902 -113.59007 38931 ft 521 kts 121°
2026-05-08 00:05 45.71789 -113.50461 38921 ft 521 kts 122°
2026-05-08 00:05 45.67653 -113.41891 38925 ft 522 kts 122°
2026-05-08 00:06 45.63543 -113.33400 38924 ft 522 kts 122°
2026-05-08 00:06 45.59393 -113.24854 38912 ft 522 kts 122°
2026-05-08 00:07 45.55249 -113.16347 38920 ft 522 kts 122°
2026-05-08 00:07 45.51090 -113.07832 38902 ft 522 kts 122°
2026-05-08 00:08 45.46951 -112.99383 38899 ft 522 kts 122°
2026-05-08 00:08 45.42780 -112.90886 38914 ft 523 kts 122°
2026-05-08 00:09 45.38601 -112.82402 38930 ft 523 kts 122°
2026-05-08 00:09 45.34438 -112.73973 38949 ft 524 kts 122°
2026-05-08 00:10 45.30244 -112.65506 39000 ft 524 kts 122°
2026-05-08 00:10 45.26042 -112.57047 38990 ft 524 kts 122°
2026-05-08 00:11 45.21284 -112.49186 38996 ft 527 kts 130°
2026-05-08 00:11 45.16323 -112.41496 38974 ft 527 kts 131°
2026-05-08 00:12 45.11365 -112.33845 38934 ft 527 kts 131°
2026-05-08 00:12 45.06422 -112.26239 38907 ft 527 kts 131°
2026-05-08 00:13 45.01449 -112.18609 38888 ft 527 kts 131°
2026-05-08 00:13 44.96470 -112.10989 38889 ft 527 kts 131°
2026-05-08 00:14 44.91497 -112.03400 38881 ft 526 kts 131°
2026-05-08 00:14 44.86518 -111.95823 38913 ft 527 kts 131°
2026-05-08 00:15 44.81563 -111.88302 38893 ft 526 kts 131°
2026-05-08 00:15 44.76578 -111.80756 38900 ft 525 kts 131°
2026-05-08 00:16 44.71585 -111.73220 38901 ft 526 kts 131°
2026-05-08 00:16 44.66589 -111.65700 38899 ft 527 kts 131°
2026-05-08 00:17 44.61584 -111.58186 38907 ft 527 kts 131°
2026-05-08 00:17 44.56603 -111.50728 38939 ft 526 kts 131°
2026-05-08 00:18 44.51598 -111.43253 38936 ft 525 kts 131°
2026-05-08 00:18 44.46577 -111.35777 38951 ft 527 kts 131°
2026-05-08 00:19 44.41594 -111.28376 38946 ft 526 kts 131°
2026-05-08 00:19 44.36574 -111.20939 38942 ft 526 kts 131°
2026-05-08 00:20 44.31582 -111.13565 38932 ft 525 kts 131°
2026-05-08 00:20 44.26547 -111.06146 38950 ft 525 kts 131°
2026-05-08 00:21 44.21524 -110.98765 38959 ft 524 kts 131°
2026-05-08 00:21 44.16507 -110.91412 38956 ft 522 kts 131°
2026-05-08 00:22 44.11522 -110.84127 38970 ft 521 kts 131°
2026-05-08 00:22 44.06522 -110.76835 38969 ft 520 kts 131°
2026-05-08 00:23 44.01529 -110.69576 38978 ft 518 kts 131°
2026-05-08 00:23 43.96540 -110.62340 38975 ft 517 kts 131°
2026-05-08 00:24 43.91586 -110.55173 38992 ft 517 kts 131°
2026-05-08 00:24 43.86610 -110.47993 38987 ft 516 kts 131°
2026-05-08 00:25 43.81628 -110.40824 38992 ft 516 kts 132°
2026-05-08 00:25 43.77456 -110.34834 38987 ft 515 kts 132°
2026-05-08 00:26 43.72515 -110.27756 38982 ft 514 kts 132°
2026-05-08 00:26 43.67539 -110.20646 38978 ft 513 kts 132°
2026-05-08 00:27 43.62577 -110.13576 38980 ft 512 kts 132°
2026-05-08 00:27 43.57647 -110.06565 38999 ft 510 kts 132°
2026-05-08 00:28 43.52703 -109.99555 39017 ft 509 kts 132°
2026-05-08 00:28 43.47760 -109.92563 39013 ft 507 kts 132°
2026-05-08 00:29 43.42834 -109.85613 39017 ft 506 kts 133°
2026-05-08 00:29 43.37918 -109.78694 39008 ft 504 kts 133°
2026-05-08 00:30 43.33049 -109.71858 39003 ft 503 kts 133°
2026-05-08 00:30 43.28152 -109.64998 38985 ft 502 kts 133°
2026-05-08 00:31 43.23269 -109.58174 38963 ft 501 kts 134°
2026-05-08 00:31 43.18377 -109.51356 38946 ft 501 kts 133°
2026-05-08 00:32 43.13486 -109.44557 38909 ft 500 kts 133°
2026-05-08 00:32 43.08588 -109.37764 38927 ft 501 kts 134°
2026-05-08 00:33 43.03722 -109.31031 38912 ft 501 kts 134°
2026-05-08 00:33 42.98806 -109.24244 38909 ft 502 kts 134°
2026-05-08 00:34 42.93883 -109.17465 38888 ft 502 kts 134°
2026-05-08 00:34 42.88953 -109.10693 38930 ft 503 kts 134°
2026-05-08 00:35 42.84023 -109.03936 38924 ft 501 kts 134°
2026-05-08 00:35 42.79122 -108.97235 38952 ft 502 kts 134°
2026-05-08 00:36 42.74197 -108.90519 38956 ft 501 kts 134°
2026-05-08 00:36 42.69278 -108.83825 38956 ft 500 kts 134°
2026-05-08 00:37 42.64358 -108.77148 38941 ft 498 kts 134°
2026-05-08 00:38 42.56996 -108.67183 38903 ft 498 kts 135°
2026-05-08 00:38 42.52089 -108.60562 38883 ft 498 kts 135°
2026-05-08 00:39 42.47209 -108.53992 38856 ft 497 kts 135°
2026-05-08 00:39 42.42292 -108.47387 38860 ft 498 kts 135°
2026-05-08 00:40 42.37393 -108.40824 38867 ft 498 kts 135°
2026-05-08 00:40 42.32458 -108.34225 38870 ft 499 kts 135°
2026-05-08 00:41 42.27503 -108.27616 38874 ft 500 kts 136°
2026-05-08 00:41 42.22555 -108.21032 38872 ft 501 kts 136°
2026-05-08 00:42 42.17608 -108.14465 38879 ft 501 kts 136°
2026-05-08 00:42 42.12628 -108.07867 38881 ft 502 kts 136°
2026-05-08 00:43 42.07643 -108.01276 38882 ft 502 kts 136°
2026-05-08 00:43 42.02647 -107.94685 38883 ft 502 kts 136°
2026-05-08 00:44 41.97686 -107.88155 38887 ft 502 kts 136°
2026-05-08 00:44 41.92688 -107.81592 38890 ft 502 kts 137°
2026-05-08 00:45 41.87689 -107.75043 38893 ft 502 kts 137°
2026-05-08 00:45 41.82685 -107.68500 38893 ft 502 kts 136°
2026-05-08 00:46 41.78032 -107.61583 38925 ft 503 kts 133°
2026-05-08 00:46 41.73354 -107.54613 38943 ft 502 kts 133°
2026-05-08 00:47 41.68668 -107.47674 38968 ft 503 kts 133°
2026-05-08 00:47 41.63965 -107.40725 38977 ft 503 kts 133°
2026-05-08 00:48 41.59264 -107.33797 38966 ft 502 kts 133°
2026-05-08 00:48 41.54556 -107.26874 38962 ft 503 kts 133°
2026-05-08 00:49 41.49870 -107.19999 38962 ft 504 kts 133°
2026-05-08 00:49 41.45144 -107.13081 38999 ft 504 kts 133°
2026-05-08 00:50 41.40438 -107.06166 39023 ft 503 kts 133°
2026-05-08 00:50 41.35726 -106.99256 39051 ft 503 kts 133°
2026-05-08 00:51 41.31008 -106.92355 39043 ft 503 kts 133°
2026-05-08 00:51 41.26324 -106.85518 39036 ft 503 kts 133°
2026-05-08 00:52 41.21599 -106.78638 39021 ft 502 kts 133°
2026-05-08 00:52 41.16891 -106.71797 38999 ft 502 kts 133°
2026-05-08 00:53 41.12175 -106.64961 38988 ft 502 kts 134°
2026-05-08 00:53 41.07463 -106.58147 38995 ft 501 kts 134°
2026-05-08 00:54 41.02779 -106.51389 38947 ft 504 kts 134°
2026-05-08 00:54 41.00396 -106.47955 38483 ft 505 kts 134°
2026-05-08 00:54 40.97987 -106.44490 37073 ft 518 kts 133°
2026-05-08 00:54 40.95542 -106.40976 36352 ft 517 kts 133°
2026-05-08 00:55 40.93113 -106.37490 35809 ft 512 kts 133°
2026-05-08 00:55 40.90696 -106.34022 35092 ft 513 kts 133°
2026-05-08 00:55 40.88276 -106.30557 34351 ft 514 kts 133°
2026-05-08 00:55 40.85885 -106.27089 33533 ft 516 kts 130°
2026-05-08 00:56 40.83931 -106.23130 32745 ft 514 kts 115°
2026-05-08 00:56 40.82379 -106.18901 32174 ft 509 kts 114°
2026-05-08 00:56 40.80849 -106.14706 31592 ft 505 kts 114°
2026-05-08 00:56 40.79351 -106.10537 31042 ft 500 kts 114°
2026-05-08 00:57 40.77876 -106.06404 30524 ft 496 kts 114°
2026-05-08 00:57 40.76417 -106.02306 30043 ft 491 kts 114°
2026-05-08 00:57 40.74969 -105.98246 29472 ft 486 kts 114°
2026-05-08 00:57 40.73539 -105.94237 28924 ft 481 kts 114°
2026-05-08 00:58 40.72119 -105.90268 28372 ft 476 kts 114°
2026-05-08 00:58 40.70709 -105.86334 27846 ft 472 kts 114°
2026-05-08 00:58 40.69313 -105.82445 27358 ft 467 kts 114°
2026-05-08 00:58 40.67931 -105.78601 26847 ft 463 kts 114°
2026-05-08 00:59 40.66556 -105.74779 26365 ft 459 kts 114°
2026-05-08 00:59 40.65194 -105.71001 25915 ft 455 kts 114°
2026-05-08 00:59 40.63844 -105.67261 25488 ft 450 kts 114°
2026-05-08 00:59 40.62504 -105.63553 25018 ft 446 kts 115°
2026-05-08 01:00 40.61176 -105.59883 24578 ft 443 kts 115°
2026-05-08 01:00 40.59856 -105.56240 24138 ft 439 kts 115°
2026-05-08 01:00 40.58563 -105.52676 23709 ft 436 kts 115°
2026-05-08 01:00 40.57247 -105.49054 23254 ft 432 kts 115°
2026-05-08 01:01 40.55972 -105.45548 22807 ft 427 kts 115°
2026-05-08 01:01 40.54696 -105.42042 22402 ft 422 kts 115°
2026-05-08 01:01 40.53432 -105.38577 22012 ft 417 kts 115°
2026-05-08 01:01 40.52189 -105.35171 21709 ft 409 kts 115°
2026-05-08 01:02 40.50964 -105.31818 21379 ft 404 kts 115°
2026-05-08 01:02 40.49756 -105.28518 21081 ft 397 kts 115°
2026-05-08 01:02 40.48571 -105.25282 20878 ft 388 kts 115°
2026-05-08 01:02 40.47414 -105.22126 20685 ft 379 kts 115°
2026-05-08 01:03 40.46187 -105.19102 20445 ft 372 kts 126°
2026-05-08 01:03 40.44384 -105.16714 20091 ft 367 kts 145°
2026-05-08 01:03 40.42322 -105.14747 19701 ft 366 kts 146°
2026-05-08 01:03 40.40268 -105.12795 19384 ft 363 kts 146°
2026-05-08 01:04 40.38217 -105.10869 19027 ft 362 kts 146°
2026-05-08 01:04 40.36169 -105.08959 18674 ft 360 kts 146°
2026-05-08 01:04 40.34132 -105.07066 18337 ft 358 kts 146°
2026-05-08 01:04 40.32103 -105.05182 17944 ft 356 kts 146°
2026-05-08 01:05 40.30090 -105.03317 17606 ft 353 kts 146°
2026-05-08 01:05 40.28088 -105.01463 17220 ft 351 kts 146°
2026-05-08 01:05 40.26103 -104.99626 16869 ft 349 kts 147°
2026-05-08 01:05 40.24148 -104.97818 16420 ft 350 kts 146°
2026-05-08 01:06 40.22130 -104.95954 16009 ft 349 kts 147°
2026-05-08 01:06 40.20182 -104.94154 15738 ft 345 kts 147°
2026-05-08 01:06 40.18256 -104.92334 15491 ft 340 kts 142°
2026-05-08 01:06 40.16436 -104.90383 15254 ft 337 kts 142°
2026-05-08 01:07 40.15106 -104.88967 15090 ft 337 kts 142°
2026-05-08 01:07 40.13889 -104.87679 14936 ft 336 kts 142°
2026-05-08 01:07 40.11614 -104.85281 14661 ft 334 kts 143°
2026-05-08 01:07 40.09805 -104.83380 14436 ft 333 kts 143°
2026-05-08 01:08 40.07998 -104.81483 14203 ft 332 kts 143°
2026-05-08 01:08 40.06320 -104.79514 13910 ft 333 kts 130°
2026-05-08 01:08 40.04966 -104.77062 13579 ft 331 kts 126°
2026-05-08 01:08 40.03662 -104.74662 13248 ft 329 kts 126°
2026-05-08 01:09 40.02311 -104.72193 12915 ft 327 kts 126°
2026-05-08 01:09 40.00992 -104.69791 12575 ft 325 kts 126°
2026-05-08 01:09 40.00122 -104.68207 12366 ft 323 kts 126°
2026-05-08 01:09 39.98394 -104.65065 11961 ft 319 kts 126°
2026-05-08 01:10 39.97244 -104.62602 11606 ft 318 kts 109°
2026-05-08 01:10 39.96914 -104.59787 11290 ft 312 kts 87°
2026-05-08 01:10 39.96924 -104.56977 11032 ft 308 kts 89°
2026-05-08 01:10 39.96912 -104.55145 10948 ft 302 kts 88°
2026-05-08 01:11 39.96894 -104.52419 10581 ft 301 kts 89°
2026-05-08 01:11 39.96881 -104.50607 10344 ft 300 kts 89°
2026-05-08 01:11 39.96864 -104.48319 10054 ft 288 kts 89°
2026-05-08 01:11 39.96557 -104.45819 9689 ft 275 kts 109°
2026-05-08 01:12 39.95563 -104.43771 9297 ft 263 kts 137°
2026-05-08 01:12 39.94089 -104.42513 8994 ft 246 kts 161°
2026-05-08 01:12 39.92497 -104.42063 8712 ft 230 kts 181°
2026-05-08 01:12 39.90971 -104.42295 8449 ft 213 kts 200°